Regional Weather Roundup
Issued by NWS

Home | Current Version | Previous Version | Text Only | Print | Product List | Glossary Off
Versions: 1 2 3 4 5 6 7 8 9 10 11 12 13 14 15 16 17 18 19 20 21 22 23 24 25 26 27 28 29 30 31 32 33 34 35 36 37 38 39 40 41 42 43 44 45 46 47 48 49 50

000
ASUS43 KFSD 280210
RWRSD

WEATHER ROUNDUP FOR SOUTH DAKOTA
NATIONAL WEATHER SERVICE SIOUX FALLS SD
900 PM CDT MON APR 27 2015

NOTE: "FAIR" INDICATES FEW OR NO CLOUDS BELOW 12,000 FEET WITH NO
SIGNIFICANT WEATHER AND/OR OBSTRUCTIONS TO VISIBILITY.


SDZ001>005-009-010-012>017-280300-
NORTHWEST AND NORTH CENTRAL SOUTH DAKOTA

CITY           SKY/WX    TMP DP  RH WIND       PRES   REMARKS
BUFFALO          N/A     45  36  70 NW5       30.27S
FAITH            N/A     47  38  71 NW10      30.31R
MOBRIDGE       LGT RAIN  48  45  89 N9        30.27R
$$

SDZ012>016-024>037-041>051-057-063-072>074-280300-
SOUTHWEST AND SOUTH CENTRAL SOUTH DAKOTA

CITY           SKY/WX    TMP DP  RH WIND       PRES   REMARKS
RAPID CTY ARPT LGT RAIN  45  39  79 N9        30.32R
PIERRE         PTCLDY    51  42  71 N14G24    30.26R
CUSTER         CLOUDY    42  39  89 CALM      30.30R
ELLSWORTH AFB  CLOUDY    46  40  78 N7        30.31
PHILIP         CLOUDY    50  40  68 N13       30.30R
PINE RIDGE     PTCLDY    48  39  71 N10       30.30R
SPEARFISH      CLOUDY    43  36  75 N8        30.35R
WINNER         FAIR      57  41  55 NW16      30.23R
$$

SDZ004>011-016>023-039-040-280300-
NORTHEAST SOUTH DAKOTA

CITY           SKY/WX    TMP DP  RH WIND       PRES   REMARKS
ABERDEEN       PTCLDY    59  42  53 N24G31    30.20R
WATERTOWN      PTCLDY    57  26  30 CALM      30.17S
BROOKINGS      PTCLDY    59  25  27 CALM      30.18R
SISSETON         N/A     56  26  31 S6        30.14S
$$

SDZ017-020-022-023-036>040-048>070-280300-
SOUTHEAST SOUTH DAKOTA

CITY           SKY/WX    TMP DP  RH WIND       PRES   REMARKS
SIOUX FALLS    MOCLDY    56  33  42 CALM      30.16R
HURON          PTCLDY    55  27  34 NW14      30.17R
CHAMBERLAIN    CLEAR     57  41  55 N15       30.21R
MITCHELL       PTCLDY    64  26  23 CALM      30.16S
YANKTON        MOCLDY    57  30  35 NW9       30.15R
$$

ABBREVIATIONS USED IN REMARKS
   TC - TEMPERATURE IN CELSIUS
  WCI - WIND CHILL INDEX
   HX - HEAT INDEX
  VSB - VISIBILITY




USA.gov is the U.S. government's official web portal to all federal, state and local government web resources and services.